Location: Andrest
(43.3200°N, 0.0641°E)
Time: 21:24:04
(UTC+00:00)

Meteor 1-11 Rocket - Pass Details

Date: 01 December 2020
Orbit: 832 x 915 km, 81.2° (Epoch: 20 January)

Event Time Altitude Azimuth Distance (km) Brightness Sun altitude
Rises 19:17:01 0° 345° (NNW) 3,479 7.1 -30.6°
Reaches altitude 10° 19:19:29 10° 340° (NNW) 2,549 6.4 -31.1°
Maximum altitude 19:25:06 53° 266° (W) 1,097 4.5 -32.1°
Drops below altitude 10° 19:30:47 10° 191° (S) 2,580 6.3 -33.1°
Sets 19:33:19 0° 187° (S) 3,524 7.0 -33.6°
